Regional Weather Roundup
Issued by NWS

Home | Current Version | Previous Version | Graphics & Text | Print | Product List | Glossary On
Versions: 1 2 3 4 5 6 7 8 9 10 11 12 13 14 15 16 17 18 19 20 21 22 23 24 25 26 27
000
ASUS45 KBOI 241510
RWRID

IDAHO REGIONAL WEATHER ROUNDUP
NATIONAL WEATHER SERVICE BOISE ID
900 AM MDT THU MAY 24 2018

NOTE: "FAIR" INDICATES FEW OR NO CLOUDS BELOW 12000 FEET
WITH NO SIGNIFICANT WEATHER AND/OR OBSTRUCTIONS TO VISIBILITY

IDZ012-014-241600-
SOUTHWEST IDAHO


CITY           SKY/WX    TMP DP  RH WIND       PRES   REMARKS
BOISE          CLOUDY    64  56  75 SE7       30.02R
CALDWELL       PTSUNNY   62  55  77 E3        30.02R
MOUNTAIN HOME  PTSUNNY   63  62  95 E7        30.04R
$$

IDZ016-017-241600-
SOUTHCENTRAL IDAHO


CITY           SKY/WX    TMP DP  RH WIND       PRES   REMARKS
BURLEY         MOSUNNY   66  50  56 S3        30.08R
JEROME         SUNNY     61  49  64 S5        30.09R
TWIN FALLS     MOSUNNY   63  50  62 S12       30.09R
$$

IDZ019>023-241600-
SOUTHEAST IDAHO


CITY           SKY/WX    TMP DP  RH WIND       PRES   REMARKS
IDAHO FALLS    MOSUNNY   54  49  83 CALM      30.13R
POCATELLO      SUNNY     63  48  58 CALM      30.11R
REXBURG        CLOUDY    53  48  83 CALM      30.12R
$$

IDZ006-010-011-018-031-032-241600-
CENTRAL IDAHO MOUNTAINS


CITY           SKY/WX    TMP DP  RH WIND       PRES   REMARKS
MCCALL         MOSUNNY   58  51  78 S3        30.07R
HAILEY         MOSUNNY   55  48  76 NW7       30.15R
STANLEY        NOT AVBL
SALMON         CLOUDY    55  53  93 CALM      30.08R
CHALLIS        PTSUNNY   59  52  77 VRB3      30.09S
$$

IDZ002-004-006-007-026-241600-
NORTHERN IDAHO


CITY           SKY/WX    TMP DP  RH WIND       PRES   REMARKS
LEWISTON       MOSUNNY   69  59  70 E9        29.94R
LOWELL           N/A     56  55  97 CALM      29.99R
COEUR D`ALENE  PTSUNNY   62  56  80 SE9       29.95R
MULLAN PASS    PTSUNNY   48  47  96 CALM      30.05R
$$




USA.gov is the U.S. government's official web portal to all federal, state and local government web resources and services.